Location: Unspecified
(49.9407°N, 0.0000°E)
Time: 04:47:00
(UTC+00:00)

BPA 3/SL-24 R/B - Visible Passes

Search period start: 04 April 2026 00:00
Search period end: 14 April 2026 00:00
Orbit: 592 x 1603 km, 97.7° (Epoch: 29 March)

Date Brightness Start Highest point End Pass type
(mag) Time Alt. Az. Time Alt. Az. Time Alt. Az.
4 Apr ? 02:52:23 10° ESE 02:59:29 26° NE 03:06:14 10° N visible
4 Apr ? 04:34:53 10° SSE 04:44:10 77° ENE 04:53:02 10° N visible
4 Apr ? 19:19:23 10° N 19:25:52 34° WNW 19:31:08 10° WSW visible
5 Apr ? 02:10:29 10° ENE 02:15:32 17° NE 02:20:21 10° N visible
5 Apr ? 03:50:47 10° SE 03:59:34 49° ENE 04:07:49 10° N visible
5 Apr ? 20:21:29 10° N 20:25:30 16° NW 20:29:07 10° WNW visible
6 Apr ? 03:07:31 10° ESE 03:15:13 31° NE 03:22:22 10° N visible
6 Apr ? 04:50:49 10° SSE 05:00:12 90° WSW 05:09:00 10° NNW visible
6 Apr ? 19:35:44 10° N 19:41:25 26° NW 19:46:10 10° WSW visible
7 Apr ? 02:25:15 10° E 02:31:06 20° NE 02:36:37 10° N visible
7 Apr ? 04:06:25 10° SE 04:15:28 58° ENE 04:23:50 10° N visible
7 Apr ? 20:38:27 10° NNW 20:40:54 12° NW 20:43:13 10° WNW visible
8 Apr ? 01:44:29 10° ENE 01:47:16 12° NE 01:49:56 10° NNE visible
8 Apr ? 03:22:50 10° ESE 03:30:59 37° ENE 03:38:26 10° N visible
8 Apr ? 19:52:09 10° N 19:56:55 20° NW 20:01:02 10° W visible
9 Apr ? 02:40:11 10° E 02:46:45 23° NE 02:52:47 10° N visible
9 Apr ? 04:22:10 10° SSE 04:31:25 70° ENE 04:39:48 10° N visible
10 Apr ? 01:58:44 10° ENE 02:02:45 14° NE 02:06:32 10° NNE visible
10 Apr ? 03:38:17 10° SE 03:46:48 44° ENE 03:54:28 10° N visible
10 Apr ? 20:08:45 10° NNW 20:12:21 15° NW 20:15:35 10° W visible
11 Apr ? 02:55:17 10° ESE 03:02:26 27° NE 03:08:53 10° N visible
11 Apr ? 04:38:05 10° SSE 04:47:25 84° ENE 04:55:44 10° NNW visible
11 Apr ? 19:22:54 10° N 19:28:09 27° NW 19:32:33 10° WSW visible
12 Apr ? 02:13:21 10° E 02:18:18 17° NE 02:22:53 10° NNE visible
12 Apr ? 03:53:52 10° SE 04:02:41 53° ENE 04:10:27 10° N visible
12 Apr ? 20:25:50 10° NNW 20:27:45 11° NW 20:29:34 10° WNW visible
13 Apr ? 03:10:32 10° ESE 03:18:10 32° ENE 03:24:57 10° N visible
13 Apr ? 19:39:17 10° N 19:43:39 20° NW 19:47:25 10° W visible
